Time,TemperatureF,DewpointF,PressureIn,WindDirection,WindDirectionDegrees,WindSpeedMPH,WindSpeedGustMPH,Humidity,HourlyPrecipIn,Conditions,Clouds,dailyrainin,SolarRadiationWatts/m^2,SoftwareType,DateUTC
2013-07-15 00:01:00,57.0,44.0,-100.00,NW,310,9.0,17.0,62,0.00,,,0.00,0.000000,,2013-07-15 07:01:00,
2013-07-15 00:33:00,57.0,44.0,-100.00,NW,310,9.0,17.0,62,0.00,,,0.00,0.000000,,2013-07-15 07:33:00,
2013-07-15 00:44:00,57.0,44.0,-100.00,NW,310,9.0,17.0,62,0.00,,,0.00,0.000000,,2013-07-15 07:44:00,
2013-07-15 00:53:00,57.0,44.0,-100.00,NW,310,9.0,17.0,62,0.00,,,0.00,0.000000,,2013-07-15 07:53:00,
2013-07-15 01:01:00,56.0,47.0,-100.00,NNW,336,9.0,15.0,73,0.00,,,0.00,0.000000,,2013-07-15 08:01:00,
2013-07-15 01:32:00,56.0,47.0,-100.00,NNW,336,9.0,15.0,73,0.00,,,0.00,0.000000,,2013-07-15 08:32:00,
2013-07-15 01:43:00,56.0,47.0,-100.00,NNW,336,9.0,15.0,73,0.00,,,0.00,0.000000,,2013-07-15 08:43:00,
2013-07-15 01:53:00,56.0,47.0,-100.00,NNW,336,9.0,15.0,73,0.00,,,0.00,0.000000,,2013-07-15 08:53:00,
2013-07-15 02:01:00,53.0,46.0,-100.00,NNW,334,10.0,14.0,78,0.00,,,0.00,0.000000,,2013-07-15 09:01:00,
2013-07-15 02:22:00,53.0,46.0,-100.00,NNW,334,10.0,14.0,78,0.00,,,0.00,0.000000,,2013-07-15 09:22:00,
2013-07-15 02:32:00,53.0,46.0,-100.00,NNW,334,10.0,14.0,78,0.00,,,0.00,0.000000,,2013-07-15 09:32:00,
2013-07-15 02:43:00,53.0,46.0,-100.00,NNW,334,10.0,14.0,78,0.00,,,0.00,0.000000,,2013-07-15 09:43:00,
2013-07-15 02:52:00,53.0,46.0,-100.00,NNW,334,10.0,14.0,78,0.00,,,0.00,0.000000,,2013-07-15 09:52:00,
2013-07-15 03:01:00,54.0,46.0,-100.00,North,9,12.0,15.0,73,0.00,,,0.00,0.000000,,2013-07-15 10:01:00,
2013-07-15 03:22:00,54.0,46.0,-100.00,North,9,12.0,15.0,73,0.00,,,0.00,0.000000,,2013-07-15 10:22:00,
2013-07-15 03:32:00,54.0,46.0,-100.00,North,9,12.0,15.0,73,0.00,,,0.00,0.000000,,2013-07-15 10:32:00,
2013-07-15 03:43:00,54.0,46.0,-100.00,North,9,12.0,15.0,73,0.00,,,0.00,0.000000,,2013-07-15 10:43:00,
2013-07-15 03:53:00,54.0,46.0,-100.00,North,9,12.0,15.0,73,0.00,,,0.00,0.000000,,2013-07-15 10:53:00,
2013-07-15 04:01:00,52.0,44.0,-100.00,NE,34,7.0,18.0,74,-99.99,,,0.00,0.000000,,2013-07-15 11:01:00,
2013-07-15 04:22:00,52.0,44.0,-100.00,NE,34,7.0,18.0,74,-99.99,,,0.00,0.000000,,2013-07-15 11:22:00,
2013-07-15 04:32:00,52.0,44.0,-100.00,NE,34,7.0,18.0,74,-99.99,,,0.00,0.000000,,2013-07-15 11:32:00,
2013-07-15 04:42:00,52.0,44.0,-100.00,NE,34,7.0,18.0,74,-99.99,,,0.00,0.000000,,2013-07-15 11:42:00,
2013-07-15 04:52:00,52.0,44.0,-100.00,NE,34,7.0,18.0,74,-99.99,,,0.00,0.000000,,2013-07-15 11:52:00,
2013-07-15 05:01:00,50.0,42.0,-100.00,West,280,6.0,16.0,74,0.00,,,0.00,0.000000,,2013-07-15 12:01:00,
2013-07-15 05:22:00,50.0,42.0,-100.00,West,280,6.0,16.0,74,0.00,,,0.00,0.000000,,2013-07-15 12:22:00,
2013-07-15 05:33:00,50.0,42.0,-100.00,West,280,6.0,16.0,74,0.00,,,0.00,0.000000,,2013-07-15 12:33:00,
2013-07-15 05:42:00,50.0,42.0,-100.00,West,280,6.0,16.0,74,0.00,,,0.00,0.000000,,2013-07-15 12:42:00,
2013-07-15 05:52:00,50.0,42.0,-100.00,West,280,6.0,16.0,74,0.00,,,0.00,0.000000,,2013-07-15 12:52:00,
2013-07-15 06:01:00,49.0,42.0,-100.00,NE,41,7.0,17.0,77,0.00,,,0.00,0.000000,,2013-07-15 13:01:00,
2013-07-15 06:33:00,49.0,42.0,-100.00,NE,41,7.0,17.0,77,0.00,,,0.00,0.000000,,2013-07-15 13:33:00,
2013-07-15 06:43:00,49.0,42.0,-100.00,NE,41,7.0,17.0,77,0.00,,,0.00,0.000000,,2013-07-15 13:43:00,
2013-07-15 06:53:00,49.0,42.0,-100.00,NE,41,7.0,17.0,77,0.00,,,0.00,0.000000,,2013-07-15 13:53:00,
2013-07-15 07:01:00,51.0,45.0,-100.00,WSW,244,7.0,19.0,80,0.00,,,0.00,3.000000,,2013-07-15 14:01:00,
2013-07-15 07:33:00,51.0,45.0,-100.00,WSW,244,7.0,19.0,80,0.00,,,0.00,3.000000,,2013-07-15 14:33:00,
2013-07-15 07:42:00,51.0,45.0,-100.00,WSW,244,7.0,19.0,80,0.00,,,0.00,3.000000,,2013-07-15 14:42:00,
2013-07-15 08:01:00,53.0,45.0,-100.00,ESE,118,9.0,18.0,75,0.00,,,0.00,98.000000,,2013-07-15 15:01:00,
2013-07-15 08:29:00,53.0,45.0,-100.00,ESE,118,9.0,18.0,75,0.00,,,0.00,98.000000,,2013-07-15 15:29:00,
2013-07-15 08:40:00,53.0,45.0,-100.00,ESE,118,9.0,18.0,75,0.00,,,0.00,98.000000,,2013-07-15 15:40:00,
2013-07-15 08:47:00,53.0,45.0,-100.00,ESE,118,9.0,18.0,75,0.00,,,0.00,98.000000,,2013-07-15 15:47:00,
2013-07-15 08:53:00,53.0,45.0,-100.00,ESE,118,9.0,18.0,75,0.00,,,0.00,98.000000,,2013-07-15 15:53:00,
2013-07-15 09:01:00,56.0,47.0,-100.00,SSW,207,9.0,21.0,72,0.00,,,0.00,292.000000,,2013-07-15 16:01:00,
2013-07-15 09:33:00,56.0,47.0,-100.00,SSW,207,9.0,21.0,72,0.00,,,0.00,292.000000,,2013-07-15 16:33:00,
2013-07-15 09:52:00,56.0,47.0,-100.00,SSW,207,9.0,21.0,72,0.00,,,0.00,292.000000,,2013-07-15 16:52:00,
2013-07-15 10:01:00,57.0,47.0,-100.00,NE,42,10.0,21.0,69,0.00,,,0.00,494.000000,,2013-07-15 17:01:00,
2013-07-15 10:36:00,57.0,47.0,-100.00,NE,42,10.0,21.0,69,0.00,,,0.00,494.000000,,2013-07-15 17:36:00,
2013-07-15 10:50:00,57.0,47.0,-100.00,NE,42,10.0,21.0,69,0.00,,,0.00,494.000000,,2013-07-15 17:50:00,
2013-07-15 10:57:00,57.0,47.0,-100.00,NE,42,10.0,21.0,69,0.00,,,0.00,494.000000,,2013-07-15 17:57:00,
2013-07-15 11:01:00,59.0,47.0,-100.00,NE,46,11.0,24.0,65,0.00,,,0.00,686.000000,,2013-07-15 18:01:00,
2013-07-15 11:39:00,59.0,47.0,-100.00,NE,46,11.0,24.0,65,0.00,,,0.00,686.000000,,2013-07-15 18:39:00,
2013-07-15 12:01:00,64.0,49.0,-100.00,West,277,9.0,23.0,59,-99.99,,,0.00,853.000000,,2013-07-15 19:01:00,
2013-07-15 12:38:00,64.0,49.0,-100.00,West,277,9.0,23.0,59,-99.99,,,0.00,853.000000,,2013-07-15 19:38:00,
2013-07-15 12:47:00,64.0,49.0,-100.00,West,277,9.0,23.0,59,-99.99,,,0.00,853.000000,,2013-07-15 19:47:00,
2013-07-15 12:56:00,64.0,49.0,-100.00,West,277,9.0,23.0,59,-99.99,,,0.00,853.000000,,2013-07-15 19:56:00,
2013-07-15 13:01:00,67.0,50.0,-100.00,NE,53,10.0,22.0,55,0.00,,,0.00,982.000000,,2013-07-15 20:01:00,
2013-07-15 13:29:00,67.0,50.0,-100.00,NE,53,10.0,22.0,55,0.00,,,0.00,982.000000,,2013-07-15 20:29:00,
2013-07-15 13:37:00,67.0,50.0,-100.00,NE,53,10.0,22.0,55,0.00,,,0.00,982.000000,,2013-07-15 20:37:00,
2013-07-15 13:43:00,67.0,50.0,-100.00,NE,53,10.0,22.0,55,0.00,,,0.00,982.000000,,2013-07-15 20:43:00,
2013-07-15 14:01:00,69.0,50.0,-100.00,WSW,257,10.0,23.0,50,0.00,,,0.00,1059.000000,,2013-07-15 21:01:00,
2013-07-15 14:23:00,69.0,50.0,-100.00,WSW,257,10.0,23.0,50,0.00,,,0.00,1059.000000,,2013-07-15 21:23:00,
2013-07-15 14:40:00,69.0,50.0,-100.00,WSW,257,10.0,23.0,50,0.00,,,0.00,1059.000000,,2013-07-15 21:40:00,
2013-07-15 14:48:00,69.0,50.0,-100.00,WSW,257,10.0,23.0,50,0.00,,,0.00,1059.000000,,2013-07-15 21:48:00,
2013-07-15 14:58:00,69.0,50.0,-100.00,WSW,257,10.0,23.0,50,0.00,,,0.00,1059.000000,,2013-07-15 21:58:00,
2013-07-15 15:01:00,69.0,45.0,-100.00,NW,324,9.0,23.0,42,0.00,,,0.00,1079.000000,,2013-07-15 22:01:00,
2013-07-15 15:43:00,69.0,45.0,-100.00,NW,324,9.0,23.0,42,0.00,,,0.00,1079.000000,,2013-07-15 22:43:00,
2013-07-15 15:54:00,69.0,45.0,-100.00,NW,324,9.0,23.0,42,0.00,,,0.00,1079.000000,,2013-07-15 22:54:00,
2013-07-15 16:01:00,70.0,40.0,-100.00,NNE,32,12.0,23.0,34,-99.99,,,0.00,1044.000000,,2013-07-15 23:01:00,
2013-07-15 16:40:00,70.0,40.0,-100.00,NNE,32,12.0,23.0,34,-99.99,,,0.00,1044.000000,,2013-07-15 23:40:00,
2013-07-15 16:48:00,70.0,40.0,-100.00,NNE,32,12.0,23.0,34,-99.99,,,0.00,1044.000000,,2013-07-15 23:48:00,
2013-07-15 16:53:00,70.0,40.0,-100.00,NNE,32,12.0,23.0,34,-99.99,,,0.00,1044.000000,,2013-07-15 23:53:00,
2013-07-15 17:01:00,71.0,38.0,-100.00,North,2,9.0,23.0,30,0.00,,,0.00,961.000000,,2013-07-16 00:01:00,
2013-07-15 17:34:00,71.0,38.0,-100.00,North,2,9.0,23.0,30,0.00,,,0.00,961.000000,,2013-07-16 00:34:00,
2013-07-15 17:49:00,71.0,38.0,-100.00,North,2,9.0,23.0,30,0.00,,,0.00,961.000000,,2013-07-16 00:49:00,
2013-07-15 18:01:00,72.0,38.0,-100.00,NE,34,11.0,23.0,29,0.00,,,0.00,824.000000,,2013-07-16 01:01:00,
2013-07-15 18:38:00,72.0,38.0,-100.00,NE,34,11.0,23.0,29,0.00,,,0.00,824.000000,,2013-07-16 01:38:00,
2013-07-15 18:49:00,72.0,38.0,-100.00,NE,34,11.0,23.0,29,0.00,,,0.00,824.000000,,2013-07-16 01:49:00,
2013-07-15 18:59:00,72.0,38.0,-100.00,NE,34,11.0,23.0,29,0.00,,,0.00,824.000000,,2013-07-16 01:59:00,
2013-07-15 19:01:00,69.0,34.0,-100.00,ENE,78,11.0,23.0,27,0.00,,,0.00,645.000000,,2013-07-16 02:01:00,
2013-07-15 19:35:00,69.0,34.0,-100.00,ENE,78,11.0,23.0,27,0.00,,,0.00,645.000000,,2013-07-16 02:35:00,
2013-07-15 19:50:00,69.0,34.0,-100.00,ENE,78,11.0,23.0,27,0.00,,,0.00,645.000000,,2013-07-16 02:50:00,
2013-07-15 20:01:00,69.0,38.0,-100.00,NE,37,10.0,21.0,32,0.00,,,0.00,444.000000,,2013-07-16 03:01:00,
2013-07-15 20:29:00,69.0,38.0,-100.00,NE,37,10.0,21.0,32,0.00,,,0.00,444.000000,,2013-07-16 03:29:00,
2013-07-15 20:40:00,69.0,38.0,-100.00,NE,37,10.0,21.0,32,0.00,,,0.00,444.000000,,2013-07-16 03:40:00,
2013-07-15 20:48:00,69.0,38.0,-100.00,NE,37,10.0,21.0,32,0.00,,,0.00,444.000000,,2013-07-16 03:48:00,
2013-07-15 20:57:00,69.0,38.0,-100.00,NE,37,10.0,21.0,32,0.00,,,0.00,444.000000,,2013-07-16 03:57:00,